Regional Weather Roundup
Issued by NWS Jackson, KY

Home | Current Version | Previous Version | Graphics & Text | Print | Product List | Glossary On
Versions: 1 2 3 4 5 6 7 8 9 10 11 12 13 14 15 16 17 18 19 20 21 22 23 24 25 26 27 28 29 30 31 32 33 34 35 36 37 38 39 40 41 42 43 44 45 46 47 48 49 50
000
ASUS43 KJKL 210210
RWRJKL

EAST KENTUCKY HOURLY WEATHER ROUNDUP
NATIONAL WEATHER SERVICE JACKSON KY
900 PM EST THU NOV 20 2014

NOTE: "FAIR" INDICATES FEW OR NO CLOUDS BELOW 12,000 FEET WITH
NO SIGNIFICANT WEATHER AND/OR OBSTRUCTIONS TO VISIBILITY.

* THESE REPORTS ARE NOT UNDER NWS QUALITY CONTROL AND MAY NOT
  REPORT WEATHER SUCH AS PRECIPITATION AND FOG.

KYZ079-080-083-085-087-088-110-112-115-119-120-210300
...EASTERN KENTUCKY...

CITY           SKY/WX    TMP DP  RH WIND       PRES   REMARKS
JACKSON        CLEAR     29  17  61 W5        30.19R WCI  24
LONDON         CLEAR     32  17  54 W3        30.22R
SOMERSET*      CLEAR     30  19  64 CALM      30.25R
MONTICELLO*    CLEAR     23  20  89 W5        30.27R WCI  17
MIDDLESBORO*   CLEAR     29  24  81 CALM      30.22R
HARLAN APT*    CLEAR     34  18  51 SW3       30.19R
BIG SANDY*     CLEAR     31  18  58 W3        30.19R
MOREHEAD APT*  PTCLDY    27  16  63 NW3       30.23R
$$

KYZ035-036-041-042-044-050-067-078-099-210300
...CENTRAL KENTUCKY...

CITY           SKY/WX    TMP DP  RH WIND       PRES   REMARKS
MT STERLING*   CLEAR     27  19  74 NW3       30.23R
FLEMING/MASON* CLEAR     23  15  70 W7        30.24R WCI  15
DANVILLE*      CLEAR     30  18  59 NW5       30.25R WCI  25
RICHMOND*      CLEAR     27  18  69 W6        30.23R WCI  20
LEXINGTON      CLEAR     25  16  68 W5        30.23R WCI  19
FRANKFORT      CLEAR     26  15  63 W5        30.24R WCI  20
$$

KYZ091>093-OHZ055-061-077-WVZ005-015-034-035-042-210300
...SOUTHERN OHIO/WEST VIRGINIA...

CITY           SKY/WX    TMP DP  RH WIND       PRES   REMARKS
COVINGTON      CLEAR     25  13  60 W7        30.21R WCI  17
COLUMBUS       PTCLDY    23  13  65 W8        30.18R WCI  14
DAYTON         PTCLDY    23  14  68 SW14      30.18R WCI  11
WILMINGTON     CLEAR     24  13  62 W9        30.18R WCI  14
HUNTINGTON     CLEAR     28  16  60 W5        30.20R WCI  23
CHARLESTON     CLEAR     30  14  51 W8        30.18R WCI  22
PINEVILLE*     CLEAR     32  23  70 MISG      30.18R
BECKLEY        CLEAR     29  14  53 NW10      30.08R WCI  20
BLUEFIELD      CLEAR     33  12  41 W10       30.06R WCI  25
$$

VAZ002-007-008-TNZ017-027-036-066-071-210300
...SOUTHWEST VIRGINIA/EAST TENNESSEE...

CITY           SKY/WX    TMP DP  RH WIND       PRES   REMARKS
WISE*          CLEAR     34  12  40 W9G17     30.13R WCI  26
JONESVILLE*    CLEAR     32  23  69 SW5       30.21R WCI  27
ABINGDON*      CLEAR     39  18  43 W8        30.12R WCI  33
BRISTOL        CLEAR     40  21  46 W9        30.16R WCI  34
KNOXVILLE      CLEAR     39  23  52 SW3       30.23R
OAK RIDGE      CLEAR     42  22  44 SW3       30.24R
CROSSVILLE     CLEAR     35  22  58 W7        30.21R WCI  29
NASHVILLE      CLEAR     34  23  64 CALM      30.27R
$$

...KEY TO REMARKS...
VSB - VISIBILITY IN MILES
WCI - WIND CHILL INDEX
HX  - HEAT INDEX

$$


USA.gov is the U.S. government's official web portal to all federal, state and local government web resources and services.